Weather in Banychi

Ukraine / Sumi District     51°30′42″N   33°55′12″E
temp.,
°C
wind,
m/s
gust,
m/s
humid.,
%
clouds,
%
prec.,
mm/h
press.,
hPa
HPBL,
m
19 april, mon
mon1900:00+4nne119362 0.0 101810
03:00+5nnw249327 0.0 1018118
06:00+3n35967 0.0 1017103
09:00+8nne457811 0.0 1017522
12:00+11ne446162 0.4 10161320
15:00+11nne456228 0.6 10161214
18:00+10nne5671100 0.1 1015760
21:00+7n34868 0.1 101667
20 april, tue
tue2000:00+6ne599390 0.0 1015351
03:00+7ne478780 0.0 1014439
06:00+6ene468978 0.0 1012407
09:00+9ene4576100 0.0 1012559
12:00+12ne456373 0.3 10091145
15:00+11ene6873100 1.5 1007921
18:00+10ne71082100 0.7 1005843
21:00+7n61088100 0.8 1004615
21 april, wed
wed2100:00+6nnw6990100 0.1 1003665
03:00+5nw61192100 0.1 1004827
06:00+5wnw61087100 0.0 1006949
09:00+6w5878100 0.0 10081079
12:00+7w5782100 0.1 1010783
15:00+9wsw6765100 0.4 10111314
18:00+9wsw4769100 0.2 1012838
21:00+6ssw478099 0.2 1014135
22 april, thu
thu2200:00+5s41087100 0.0 1014205
03:00+6ssw4108898 0.3 1014292
06:00+6s379097 0.3 1015197
09:00+10ssw577553 0.3 1016422
12:00+14sw68558 0.4 10161465
15:00+16sw674823 0.8 10162061
18:00+14ssw696380 1.3 1016501
21:00+10s358231 2.8 101770
23 april, fri
fri2300:00+8s369143 0.6 1017118
03:00+7sse389314 0.6 1017147
06:00+6sse410946 0.0 1017218
09:00+12s711747 0.0 1016521
12:00+14s7106799 0.0 1016909
15:00+16ssw91256100 1.4 10131624
18:00+13sw51074100 2.0 1013777
21:00+7wnw3594100 9.6 1015296